Terug naar catalogus

TITAN 3C TRANSTAGE R/B

ActiefMEO
NORAD 6976·ROCKET BODY·🇺🇸 United States

Gelanceerd Dec 13, 1973 vanaf Cape Canaveral Space Force Station

Loading…

Volgende Passages (komende 24 uur)

TLE

VersSource: Space-Track

Epoch: Sep 14, 2026, 07:00 UTC

1 06976U 73100D   26257.29189105 -.00000207  00000-0  00000-0 0  9996
2 06976   6.2639 283.1029 0268400 136.8725  45.8641  0.94996994112587

Volg TITAN 3C TRANSTAGE R/B in realtime met AllMySat

Download on the App Store